Starlink 30864

operational
NORAD ID: 58243 Int'l Des: 2023-171 Owner: SPXS Country: US Constellation: starlink
LEOCIRCULAR

About Starlink 30864

Description loading...

Live Position

Loading 3D Globe...

Upcoming Passes

Altitude History

Altitude vs Time

uPlot chart will show altitude changes over time

Two-Line Element Set

1 58243U 23171P 25350.48442723 .00001622 00000-0 13508-3 0 9996
2 58243 43.0046 17.7344 0001331 273.0476 87.0214 15.02539065117113
Epoch: Dec 16, 2025 • Age: 23 hours

Current Status

Altitude 558.5 km
Velocity 7.58 km/s
Sub-Earth Point 8.44°N, 63.48°W
Launch Date Nov 8, 2023
Age 2.1 years
Type internet

Technical Details

Classification Payload
Mass 730.00 kg
Dry Mass 700.00 kg
Total Mass 730.00 kg
Length 0.30 m
Diameter 4.10 m
Span 29.00 m
Shape Box + pan
Manufacturer SPXS
Bus Type Starlink V2M
Phase Status In Orbit
Owner/State SPXS/US

Large Constellations

Loading constellations...